Regional Weather Roundup
Issued by NWS

Home | Current Version | Previous Version | Graphics & Text | Print | Product List | Glossary On
Versions: 1 2 3 4 5 6 7 8 9 10 11 12 13 14 15 16 17 18 19 20 21 22 23 24 25 26 27
000
ASUS45 KCYS 200710
RWRWY

WYOMING REGIONAL WEATHER ROUNDUP
NATIONAL WEATHER SERVICE CHEYENNE WY
1200 AM MST FRI JAN 20 2017

NOTE:  "FAIR" INDICATES FEW OR NO CLOUDS BELOW 12,000 FEET
WITH NO SIGNIFICANT WEATHER AND/OR OBSTRUCTIONS TO VISIBILITY.

WYZ001-200800-
YELLOWSTONE NATIONAL PARK

CITY           SKY/WX    TMP DP  RH WIND       PRES   REMARKS
LK YELLOWSTONE   N/A     22  19  89 VRB5      29.58F WCI  16
W YELLOWSTONE  NOT AVBL

$$
WYZ002>013-054>058-071-098>099-200800-
NORTHERN WYOMING

CITY           SKY/WX    TMP DP  RH WIND       PRES   REMARKS
JACKSON        CLOUDY    25  23  93 CALM      29.60S
CODY           FAIR      34  23  64 W3        29.50F
GREYBULL       CLOUDY    24  19  81 CALM      29.51F
WORLAND        CLOUDY    26  23  88 CALM      29.52S
SHERIDAN       MOCLDY    34  24  67 SW8       29.49F WCI  27
BUFFALO        FAIR      34  19  54 NW7       29.48F WCI  28
GILLETTE       FAIR      29  23  78 W8        29.46F WCI  21
HULETT         FAIR      25  21  86 S12       29.46F WCI  14
NEWCASTLE      FAIR      27  19  74 N8        29.47F WCI  18

$$
WYZ014>020-022>026-101>103-200800-
CENTRAL WYOMING

CITY           SKY/WX    TMP DP  RH WIND       PRES   REMARKS
BIG PINEY      CLOUDY    10   8  92 N6        29.60F WCI   0
PINEDALE       FAIR       9   7  92 W7        29.60F WCI  -3
DUBOIS         NOT AVBL
LANDER         CLOUDY    21  15  78 CALM      29.52F
RIVERTON       CLOUDY    18  13  80 SW3       29.54F
CASPER         CLOUDY    32  26  78 SW20      29.51F WCI  20
DOUGLAS        FAIR      33  23  66 W13       29.47F WCI  24

$$
WYZ021-027>030-104>119-200800-
SOUTHERN WYOMING

CITY           SKY/WX    TMP DP  RH WIND       PRES   REMARKS
EVANSTON       FOG       25  21  85 SW7       29.61F VSB 1/4 WCI  17
ROCK SPRINGS   CLOUDY    22  20  92 W7        29.60F WCI  13
RAWLINS        LGT SNOW  27  23  85 SW13      29.57F FOG     WCI  16
LARAMIE        FAIR      23  15  71 W7        29.52F WCI  15
CHEYENNE       FAIR      33  20  58 W9        29.49F WCI  25
TORRINGTON     FAIR      27  21  78 NE6       29.47F WCI  20

$$




USA.gov is the U.S. government's official web portal to all federal, state and local government web resources and services.